Santa Monica, CA

7:28 AM PST on February 08, 2016 (GMT -0800)
Santa Monica Municipal

Weather History for KSMO - January, 2013

Change the Weather History Date:

Wednesday, January 2, 2013

  Actual Average Record
Temperature  
Mean Temperature 52 °F -  
Max Temperature 63 °F 66 °F 80 °F (1962)
Min Temperature 42 °F 46 °F 31 °F (1952)
Degree Days  
Heating Degree Days 12    
Growing Degree Days 2 (Base 50)    
Moisture  
Dew Point 31 °F    
Average Humidity 47    
Maximum Humidity 69    
Minimum Humidity 22    
Precipitation  
Precipitation 0.00 in - - ()
Sea Level Pressure  
Sea Level Pressure 30.08 in    
Wind  
Wind Speed 3 mph (North)    
Max Wind Speed 10 mph    
Max Gust Speed -    
Visibility 10 miles    
Events      
Averages and records for this station are not official NWS values.
T = Trace of Precipitation, MM = Missing Value Source: NWS Daily Summary

Daily Weather History Graph

Daily Weather History Graph

Search for Another Location

Airport or City:

Trip Planner

Search our weather history database for the weather conditions in past years. The results will help you decide how hot, cold, wet, or windy it might be!

Date:

Astronomy

Jan. 02, 2013 Rise Set
Actual Time 6:59 AM PST 4:56 PM PST
Civil Twilight 6:31 AM PST 5:24 PM PST
Nautical Twilight 6:00 AM PST 5:55 PM PST
Astronomical Twilight 5:30 AM PST 6:25 PM PST
Moon 10:17 PM PST (1/2) 9:58 AM PST (1/2)
Length of Visible Light 10h 52m
Length of Day
9h 57m
Waning Gibbous, 74% of the Moon is Illuminated
Jan 2
Waning Gibbous
Jan 4
Last Quarter
Jan 11
New
Jan 18
First Quarter
Jan 26
Full

Hourly Weather History & Observations

Time (PST) Temp. Windchill Dew Point Humidity Pressure Visibility Wind Dir Wind Speed Gust Speed Precip Events Conditions
12:51 AM 48.9 °F - 24.1 °F 38% 30.14 in 10.0 mi Calm Calm - N/A   Clear
1:51 AM 44.1 °F 41.5 °F 28.9 °F 55% 30.12 in 10.0 mi NE 4.6 mph - N/A   Clear
2:51 AM 45.0 °F 42.6 °F 28.0 °F 52% 30.11 in 10.0 mi NNE 4.6 mph - N/A   Clear
3:51 AM 43.0 °F 41.3 °F 28.9 °F 58% 30.09 in 10.0 mi NE 3.5 mph - N/A   Clear
4:51 AM 42.1 °F 40.2 °F 28.9 °F 60% 30.09 in 10.0 mi NNE 3.5 mph - N/A   Clear
5:51 AM 45.0 °F 42.6 °F 26.1 °F 48% 30.08 in 10.0 mi NNW 4.6 mph - N/A   Clear
6:51 AM 42.1 °F 40.2 °F 28.0 °F 58% 30.09 in 10.0 mi ENE 3.5 mph - N/A   Clear
7:51 AM 46.0 °F 44.8 °F 28.9 °F 51% 30.09 in 10.0 mi North 3.5 mph - N/A   Clear
8:51 AM 54.0 °F - 28.9 °F 38% 30.10 in 10.0 mi Calm Calm - N/A   Clear
9:51 AM 57.0 °F - 25.0 °F 29% 30.11 in 10.0 mi SSW 3.5 mph - N/A   Clear
10:51 AM 60.1 °F - 21.0 °F 22% 30.11 in 10.0 mi SSW 8.1 mph - N/A   Clear
11:51 AM 60.1 °F - 28.0 °F 30% 30.09 in 10.0 mi SW 9.2 mph - N/A   Clear
12:51 PM 62.1 °F - 27.0 °F 26% 30.06 in 10.0 mi West 8.1 mph - N/A   Clear
1:51 PM 63.0 °F - 28.9 °F 28% 30.04 in 10.0 mi SW 10.4 mph - N/A   Clear
2:51 PM 62.1 °F - 36.0 °F 38% 30.05 in 10.0 mi WSW 6.9 mph - N/A   Clear
3:51 PM 60.1 °F - 39.9 °F 47% 30.05 in 10.0 mi SW 5.8 mph - N/A   Clear
4:51 PM 57.9 °F - 42.1 °F 56% 30.05 in 10.0 mi SSW 3.5 mph - N/A   Clear
5:51 PM 54.0 °F - 41.0 °F 62% 30.05 in 10.0 mi Calm Calm - N/A   Clear
6:51 PM 52.0 °F - 42.1 °F 69% 30.06 in 10.0 mi ENE 3.5 mph - N/A   Clear
7:51 PM 51.1 °F - 34.0 °F 52% 30.05 in 10.0 mi Calm Calm - N/A   Clear
8:51 PM 52.0 °F - 32.0 °F 47% 30.06 in 10.0 mi Calm Calm - N/A   Clear
9:51 PM 50.0 °F - 28.9 °F 44% 30.06 in 10.0 mi Calm Calm - N/A   Clear
10:51 PM 48.9 °F - 30.0 °F 48% 30.06 in 10.0 mi NE 3.5 mph - N/A   Clear
11:51 PM 46.0 °F 44.8 °F 33.1 °F 61% 30.06 in 10.0 mi ENE 3.5 mph - N/A   Clear